Palma de Mallorca, Spain

5:11 PM CEST on September 21, 2017 (GMT +0200)
Palma De Mallorca

Weather History for LEPA - August, 2012

Change the Weather History Date:

Wednesday, August 8, 2012

  Actual Average Record
Temperature  
Mean Temperature 82 °F -  
Max Temperature 93 °F 84 °F 96 °F (2003)
Min Temperature 70 °F 65 °F 59 °F (2000)
Cooling Degree Days 16    
Growing Degree Days 32 (Base 50)    
Moisture  
Dew Point 59 °F    
Average Humidity 48    
Maximum Humidity 69    
Minimum Humidity 23    
Precipitation  
Precipitation 0.00 in 0.04 in - ()
Sea Level Pressure  
Sea Level Pressure 30.09 in    
Wind  
Wind Speed 8 mph ()    
Max Wind Speed 15 mph    
Max Gust Speed 21 mph    
Visibility 17.3 miles    
Events      
Averages and records for this station are not official NWS values.
T = Trace of Precipitation, MM = Missing Value Source: Averaged Metar Reports

Daily Weather History Graph

Daily Weather History Graph

Search for Another Location

Airport or City:

Trip Planner

Search our weather history database for the weather conditions in past years. The results will help you decide how hot, cold, wet, or windy it might be!

Date:

Astronomy

Aug. 08, 2012 Rise Set
Actual Time 6:55 AM CEST 8:53 PM CEST
Civil Twilight 6:25 AM CEST 9:22 PM CEST
Nautical Twilight 5:49 AM CEST 9:58 PM CEST
Astronomical Twilight 5:11 AM CEST 10:37 PM CEST
Moon No Moon Rise 1:23 PM CEST (8/8)
Length of Visible Light 14h 57m
Length of Day
13h 58m
Waning Gibbous, 63% of the Moon is Illuminated
Aug 8
Waning Gibbous
Aug 9
Last Quarter
Aug 17
New
Aug 24
First Quarter
Aug 31
Full

Hourly Weather History & Observations

Time (CEST) Temp. Heat Index Dew Point Humidity Pressure Visibility Wind Dir Wind Speed Gust Speed Precip Events Conditions
12:00 AM 73.4 °F - 62.6 °F 69% 30.12 in - ENE 5.8 mph - N/A   Clear
12:30 AM 73.4 °F - 62.6 °F 69% 30.12 in - NE 8.1 mph - N/A   Clear
1:00 AM 73.4 °F - 62.6 °F 69% 30.12 in - Variable 2.3 mph - N/A   Clear
1:30 AM 73.4 °F - 62.6 °F 69% 30.12 in - East 5.8 mph - N/A   Clear
2:00 AM 71 °F - 59 °F 57% 30.12 in 12 mi ENE 3.5 mph - -   Scattered Clouds
2:00 AM 73.4 °F - 62.6 °F 69% 30.12 in - ENE 9.2 mph - N/A   Clear
2:30 AM 73.4 °F - 62.6 °F 69% 30.09 in - ENE 10.4 mph - N/A   Clear
3:00 AM 73.4 °F - 60.8 °F 65% 30.09 in - ENE 9.2 mph - N/A   Clear
3:30 AM 77.0 °F - 51.8 °F 41% 30.09 in - ENE 10.4 mph - N/A   Clear
4:00 AM 71.6 °F - 55.4 °F 57% 30.06 in - ENE 10.4 mph - N/A   Clear
4:30 AM 71.6 °F - 51.8 °F 50% 30.06 in - NE 10.4 mph - N/A   Clear
5:00 AM 75.2 °F - 44.6 °F 34% 30.06 in - ENE 8.1 mph - N/A   Clear
5:30 AM 71.6 °F - 51.8 °F 50% 30.04 in - ENE 10.4 mph - N/A   Clear
6:30 AM 75.2 °F - 55.4 °F 50% 30.06 in - NE 9.2 mph - N/A   Clear
7:00 AM 75.2 °F - 57.2 °F 53% 30.06 in - NE 6.9 mph - N/A   Clear
8:00 AM 75 °F - 51 °F 32% 30.09 in 19 mi East 1.2 mph - -   Scattered Clouds
8:00 AM 75.2 °F - 57.2 °F 53% 30.06 in - ENE 6.9 mph - N/A   Clear
8:30 AM 77.0 °F - 57.2 °F 50% 30.09 in - ENE 8.1 mph - N/A   Clear
9:00 AM 80.6 °F 80.5 °F 55.4 °F 42% 30.09 in - NE 11.5 mph - N/A   Clear
9:30 AM 82.4 °F 82.0 °F 57.2 °F 42% 30.09 in - ENE 13.8 mph - N/A   Clear
10:00 AM 82.4 °F 82.5 °F 59.0 °F 45% 30.12 in - NE 15.0 mph - N/A   Clear
10:30 AM 84.2 °F 83.8 °F 59.0 °F 42% 30.12 in - ENE 15.0 mph - N/A   Clear
11:00 AM 86.0 °F 86.1 °F 60.8 °F 43% 30.12 in - NE 13.8 mph - N/A   Clear
11:30 AM 86.0 °F 85.4 °F 59.0 °F 40% 30.12 in - ENE 12.7 mph - N/A   Clear
12:00 PM 87.8 °F 86.1 °F 55.4 °F 33% 30.12 in - NE 12.7 mph - N/A   Clear
12:30 PM 87.8 °F 86.1 °F 55.4 °F 33% 30.12 in - ENE 8.1 mph - N/A   Clear
1:00 PM 91.4 °F 89.4 °F 55.4 °F 29% 30.12 in - NE 11.5 mph - N/A   Clear
1:30 PM 91.4 °F 89.4 °F 55.4 °F 29% 30.12 in - ENE 9.2 mph 20.7 mph N/A   Clear
2:00 PM 91 °F - 58 °F 23% 30.12 in 19 mi SW 13.8 mph - -   Partly Cloudy
2:00 PM 93.2 °F 91.3 °F 55.4 °F 28% 30.09 in - NE 8.1 mph - N/A   Clear
2:30 PM 89.6 °F 90.1 °F 62.6 °F 40% 30.12 in - SW 12.7 mph - N/A   Clear
3:00 PM 87.8 °F 89.4 °F 64.4 °F 46% 30.09 in - WSW 13.8 mph - N/A   Clear
3:30 PM 87.8 °F 90.4 °F 66.2 °F 49% 30.09 in - West 12.7 mph - N/A   Clear
4:00 PM 87.8 °F 89.4 °F 64.4 °F 46% 30.09 in - WSW 11.5 mph - N/A   Clear
4:30 PM 87.8 °F 88.5 °F 62.6 °F 43% 30.09 in - WSW 12.7 mph - N/A   Clear
5:00 PM 87.8 °F 89.4 °F 64.4 °F 46% 30.06 in - WSW 12.7 mph - N/A   Clear
5:30 PM 86.0 °F 88.2 °F 66.2 °F 51% 30.06 in - SW 12.7 mph - N/A   Clear
6:00 PM 86.0 °F 87.3 °F 64.4 °F 48% 30.06 in - WSW 13.8 mph - N/A   Clear
6:30 PM 86.0 °F 86.6 °F 62.6 °F 45% 30.06 in - WSW 10.4 mph - N/A   Clear
7:00 PM 84.2 °F 85.0 °F 62.6 °F 48% 30.06 in - WSW 10.4 mph - N/A   Clear
7:30 PM 84.2 °F 85.0 °F 62.6 °F 48% 30.06 in - WSW 10.4 mph - N/A   Clear
8:00 PM 83 °F - 57 °F 31% 30.09 in 19 mi WSW 9.2 mph - -   Scattered Clouds
8:00 PM 84.2 °F 84.4 °F 60.8 °F 45% 30.06 in - WSW 9.2 mph - N/A   Clear
8:30 PM 84.2 °F 84.4 °F 60.8 °F 45% 30.09 in - SW 5.8 mph - N/A   Clear
9:00 PM 82.4 °F 82.9 °F 60.8 °F 48% 30.09 in - SW 2.3 mph - N/A   Clear
9:30 PM 82.4 °F 82.9 °F 60.8 °F 48% 30.09 in - ESE 2.3 mph - N/A   Clear
10:00 PM 80.6 °F 81.8 °F 62.6 °F 54% 30.09 in - East 2.3 mph - N/A   Clear
10:30 PM 77.0 °F - 62.6 °F 61% 30.09 in - Variable 1.2 mph - N/A   Clear
11:00 PM 77.0 °F - 62.6 °F 61% 30.12 in - NE 3.5 mph - N/A   Clear